Time,TemperatureF,DewpointF,PressureIn,WindDirection,WindDirectionDegrees,WindSpeedMPH,WindSpeedGustMPH,Humidity,HourlyPrecipIn,Conditions,Clouds,dailyrainin,SoftwareType,DateUTC
2013-06-10 00:02:00,66.6,63.3,29.66,ESE,114,0.0,0.0,89,0.14,,OVC070,0.18,VWS V14.01,2013-06-10 04:02:00,
2013-06-10 00:13:00,66.6,63.6,29.66,ESE,114,0.0,0.0,90,0.08,,OVC070,0.01,VWS V14.01,2013-06-10 04:13:00,
2013-06-10 00:17:00,66.8,63.8,29.65,ESE,116,0.0,0.0,90,0.04,,OVC070,0.01,VWS V14.01,2013-06-10 04:17:00,
2013-06-10 00:22:00,66.8,63.8,29.65,ESE,116,0.0,0.0,90,0.04,,OVC100,0.01,VWS V14.01,2013-06-10 04:22:00,
2013-06-10 00:27:00,66.8,63.8,29.65,ESE,114,0.0,0.0,90,0.05,,OVC100,0.02,VWS V14.01,2013-06-10 04:27:00,
2013-06-10 00:32:00,66.8,63.8,29.65,ESE,114,0.0,0.0,90,0.06,,OVC100,0.03,VWS V14.01,2013-06-10 04:32:00,
2013-06-10 00:42:00,66.8,64.1,29.65,ESE,114,0.0,0.0,91,0.07,,OVC100,0.06,VWS V14.01,2013-06-10 04:42:00,
2013-06-10 00:47:00,66.8,64.1,29.65,ESE,114,0.0,0.0,91,0.09,,OVC100,0.08,VWS V14.01,2013-06-10 04:47:00,
2013-06-10 00:52:00,66.8,64.1,29.65,ESE,114,0.0,0.0,91,0.10,,OVC100,0.09,VWS V14.01,2013-06-10 04:52:00,
2013-06-10 00:57:00,66.9,64.2,29.65,ESE,114,0.0,0.0,91,0.11,,OVC100,0.10,VWS V14.01,2013-06-10 04:57:00,
2013-06-10 01:02:00,66.9,64.5,29.65,ESE,114,0.0,0.0,92,0.11,,OVC100,0.11,VWS V14.01,2013-06-10 05:02:00,
2013-06-10 01:12:00,67.1,64.7,29.65,ESE,114,0.0,0.0,92,0.15,,OVC100,0.15,VWS V14.01,2013-06-10 05:12:00,
2013-06-10 01:17:00,67.1,64.7,29.64,ESE,119,0.0,0.0,92,0.22,,OVC100,0.23,VWS V14.01,2013-06-10 05:17:00,
2013-06-10 01:22:00,67.1,64.7,29.64,SE,137,0.0,0.0,92,0.23,,-RA,0.24,VWS V14.01,2013-06-10 05:22:00,
2013-06-10 01:27:00,67.3,64.9,29.64,ESE,121,0.0,0.0,92,0.24,,-RA,0.25,VWS V14.01,2013-06-10 05:27:00,
2013-06-10 01:32:00,67.3,64.9,29.63,ESE,107,0.0,0.0,92,0.24,,-RA,0.26,VWS V14.01,2013-06-10 05:32:00,
2013-06-10 01:37:00,67.3,64.9,29.63,ESE,110,0.0,0.0,92,0.23,,-RA,0.26,VWS V14.01,2013-06-10 05:37:00,
2013-06-10 01:42:00,67.3,64.9,29.63,ESE,117,0.0,0.0,92,0.23,,-RA,0.27,VWS V14.01,2013-06-10 05:42:00,
2013-06-10 01:47:00,67.1,65.0,29.62,ESE,120,0.0,0.0,93,0.22,,-RA,0.28,VWS V14.01,2013-06-10 05:47:00,
2013-06-10 01:52:00,67.1,65.0,29.62,SE,144,0.0,0.0,93,0.21,,-RA,0.29,VWS V14.01,2013-06-10 05:52:00,
2013-06-10 02:02:00,67.1,65.0,29.61,SE,144,0.0,0.0,93,0.21,,-RA,0.31,VWS V14.01,2013-06-10 06:02:00,
2013-06-10 02:07:00,67.1,65.0,29.61,SE,144,0.0,0.0,93,0.21,,-RA,0.32,VWS V14.01,2013-06-10 06:07:00,
2013-06-10 02:17:00,66.9,64.8,29.61,SE,144,0.0,0.0,93,0.19,,-RA,0.34,VWS V14.01,2013-06-10 06:17:00,
2013-06-10 02:22:00,66.8,64.7,29.61,SE,144,0.0,0.0,93,0.11,, +RA,0.34,VWS V14.01,2013-06-10 06:22:00,
2013-06-10 02:27:00,66.8,65.0,29.61,SE,144,0.0,0.0,94,0.11,, +RA,0.35,VWS V14.01,2013-06-10 06:27:00,
2013-06-10 02:37:00,66.8,65.0,29.60,SE,143,0.0,0.0,94,0.09,, +RA,0.35,VWS V14.01,2013-06-10 06:37:00,
2013-06-10 02:42:00,66.8,65.0,29.60,SE,143,0.0,0.0,94,0.10,, +RA,0.36,VWS V14.01,2013-06-10 06:42:00,
2013-06-10 02:47:00,66.8,65.0,29.61,SE,145,0.0,0.0,94,0.09,, +RA,0.36,VWS V14.01,2013-06-10 06:47:00,
2013-06-10 02:52:00,66.8,65.0,29.61,SE,144,0.0,0.0,94,0.09,, +RA,0.37,VWS V14.01,2013-06-10 06:52:00,
2013-06-10 02:57:00,66.6,65.1,29.61,SE,144,0.0,0.0,95,0.08,, +RA,0.37,VWS V14.01,2013-06-10 06:57:00,
2013-06-10 03:02:00,66.4,64.9,29.60,SE,130,0.0,0.0,95,0.08,, +RA,0.38,VWS V14.01,2013-06-10 07:02:00,
2013-06-10 03:12:00,66.3,64.8,29.60,SE,138,0.0,0.0,95,0.07,, +RA,0.39,VWS V14.01,2013-06-10 07:12:00,
2013-06-10 03:22:00,66.4,64.9,29.59,ESE,110,0.0,0.0,95,0.07,,-RA,0.41,VWS V14.01,2013-06-10 07:22:00,
2013-06-10 03:27:00,66.4,64.9,29.59,ESE,120,0.0,0.0,95,0.07,,-RA,0.41,VWS V14.01,2013-06-10 07:27:00,
2013-06-10 03:32:00,66.3,64.8,29.58,ESE,120,0.0,0.0,95,0.07,,-RA,0.42,VWS V14.01,2013-06-10 07:32:00,
2013-06-10 03:37:00,66.1,64.6,29.58,ESE,109,0.0,0.0,95,0.07,,-RA,0.42,VWS V14.01,2013-06-10 07:37:00,
2013-06-10 03:42:00,66.0,64.5,29.58,ESE,110,0.0,0.0,95,0.07,,-RA,0.42,VWS V14.01,2013-06-10 07:42:00,
2013-06-10 03:52:00,65.8,64.3,29.57,ESE,116,0.0,0.0,95,0.06,,-RA,0.42,VWS V14.01,2013-06-10 07:52:00,
2013-06-10 04:02:00,65.6,64.1,29.58,SE,128,0.0,0.0,95,0.05,,-RA,0.42,VWS V14.01,2013-06-10 08:02:00,
2013-06-10 04:07:00,65.6,64.1,29.58,SE,126,0.0,0.0,95,0.04,,-RA,0.42,VWS V14.01,2013-06-10 08:07:00,
2013-06-10 04:17:00,65.5,64.0,29.58,SE,145,0.0,0.0,95,0.03,,-RA,0.42,VWS V14.01,2013-06-10 08:17:00,
2013-06-10 04:22:00,65.5,64.3,29.58,SE,131,0.0,0.0,96,0.02,,-RA,0.43,VWS V14.01,2013-06-10 08:22:00,
2013-06-10 04:27:00,65.5,64.3,29.58,SE,136,0.0,0.0,96,0.03,,-RA,0.44,VWS V14.01,2013-06-10 08:27:00,
2013-06-10 04:32:00,65.2,63.7,29.57,SE,143,0.0,0.0,95,0.03,,-RA,0.44,VWS V14.01,2013-06-10 08:32:00,
2013-06-10 04:37:00,65.0,63.8,29.57,SE,145,0.0,0.0,96,0.03,,-RA,0.45,VWS V14.01,2013-06-10 08:37:00,
2013-06-10 04:47:00,64.2,62.7,29.57,SE,128,0.0,0.0,95,0.03,,-RA,0.45,VWS V14.01,2013-06-10 08:47:00,
2013-06-10 04:52:00,63.7,62.2,29.57,SE,140,0.0,0.0,95,0.03,,-RA,0.45,VWS V14.01,2013-06-10 08:52:00,
2013-06-10 04:57:00,63.7,62.2,29.57,SE,131,0.0,0.0,95,0.04,,-RA,0.46,VWS V14.01,2013-06-10 08:57:00,
2013-06-10 05:02:00,63.5,62.0,29.57,SE,133,0.0,0.0,95,0.05,,-RA,0.47,VWS V14.01,2013-06-10 09:02:00,
2013-06-10 05:12:00,63.5,62.0,29.57,SE,130,0.0,0.0,95,0.06,,-RA,0.48,VWS V14.01,2013-06-10 09:12:00,
2013-06-10 05:17:00,63.5,62.0,29.57,SE,131,0.0,0.0,95,0.06,,-RA,0.48,VWS V14.01,2013-06-10 09:17:00,
2013-06-10 05:27:00,63.4,62.0,29.57,SE,130,0.0,0.0,95,0.06,,-RA,0.49,VWS V14.01,2013-06-10 09:27:00,
2013-06-10 05:32:00,63.2,61.8,29.57,SE,128,0.0,0.0,95,0.05,,-RA,0.49,VWS V14.01,2013-06-10 09:32:00,
2013-06-10 05:37:00,63.2,61.8,29.57,SE,128,0.0,0.0,95,0.05,,-RA,0.49,VWS V14.01,2013-06-10 09:37:00,
2013-06-10 05:42:00,63.2,61.8,29.57,SE,130,0.0,0.0,95,0.04,,-RA,0.49,VWS V14.01,2013-06-10 09:42:00,
2013-06-10 05:47:00,63.4,62.0,29.57,SE,130,0.0,0.0,95,0.04,,-RA,0.49,VWS V14.01,2013-06-10 09:47:00,
2013-06-10 05:52:00,63.4,62.0,29.57,SE,130,0.0,0.0,95,0.04,,-RA,0.49,VWS V14.01,2013-06-10 09:52:00,
2013-06-10 06:02:00,63.5,62.3,29.57,SE,130,0.0,0.0,96,0.03,,-RA,0.49,VWS V14.01,2013-06-10 10:02:00,
2013-06-10 06:07:00,63.4,62.2,29.57,SE,130,0.0,0.0,96,0.02,,-RA,0.49,VWS V14.01,2013-06-10 10:07:00,
2013-06-10 06:12:00,63.4,62.2,29.57,SE,130,0.0,0.0,96,0.02,,-RA,0.49,VWS V14.01,2013-06-10 10:12:00,
2013-06-10 06:22:00,63.5,62.3,29.57,SE,130,0.0,0.0,96,0.01,,,0.49,VWS V14.01,2013-06-10 10:22:00,
2013-06-10 06:27:00,63.5,62.3,29.57,SE,130,0.0,0.0,96,0.01,,,0.49,VWS V14.01,2013-06-10 10:27:00,
2013-06-10 06:37:00,63.5,62.3,29.57,SE,130,0.0,0.0,96,0.00,,,0.49,VWS V14.01,2013-06-10 10:37:00,
2013-06-10 06:42:00,63.5,62.3,29.57,SE,130,0.0,0.0,96,0.00,,,0.49,VWS V14.01,2013-06-10 10:42:00,
2013-06-10 06:47:00,63.7,62.5,29.57,SE,130,0.0,0.0,96,0.00,,,0.49,VWS V14.01,2013-06-10 10:47:00,
2013-06-10 06:52:00,63.7,62.5,29.57,SE,130,0.0,0.0,96,0.00,,,0.49,VWS V14.01,2013-06-10 10:52:00,
2013-06-10 06:57:00,63.7,62.5,29.57,SE,130,0.0,0.0,96,0.01,,,0.50,VWS V14.01,2013-06-10 10:57:00,
2013-06-10 07:02:00,63.7,62.5,29.58,SE,130,0.0,0.0,96,0.02,,,0.51,VWS V14.01,2013-06-10 11:02:00,
2013-06-10 07:12:00,63.7,62.5,29.58,SE,130,0.0,0.0,96,0.02,,,0.51,VWS V14.01,2013-06-10 11:12:00,
2013-06-10 07:17:00,63.7,62.8,29.58,SE,130,0.0,0.0,97,0.02,,,0.51,VWS V14.01,2013-06-10 11:17:00,
2013-06-10 07:22:00,63.7,62.8,29.58,SE,130,0.0,0.0,97,0.02,,,0.51,VWS V14.01,2013-06-10 11:22:00,
2013-06-10 07:27:00,63.7,62.8,29.58,SE,130,0.0,0.0,97,0.02,,,0.51,VWS V14.01,2013-06-10 11:27:00,
2013-06-10 07:32:00,63.9,63.0,29.58,SE,130,0.0,0.0,97,0.02,,,0.51,VWS V14.01,2013-06-10 11:32:00,
2013-06-10 07:37:00,64.2,63.3,29.58,SE,130,0.0,0.0,97,0.02,,,0.51,VWS V14.01,2013-06-10 11:37:00,
2013-06-10 07:42:00,64.2,63.3,29.58,SE,130,0.0,0.0,97,0.02,,,0.51,VWS V14.01,2013-06-10 11:42:00,
2013-06-10 07:47:00,64.0,62.8,29.58,SE,130,0.0,0.0,96,0.02,,,0.51,VWS V14.01,2013-06-10 11:47:00,
2013-06-10 07:52:00,64.0,62.8,29.58,SE,130,0.0,0.0,96,0.02,,,0.51,VWS V14.01,2013-06-10 11:52:00,
2013-06-10 07:57:00,64.3,63.1,29.58,SE,130,0.0,0.0,96,0.02,,,0.51,VWS V14.01,2013-06-10 11:57:00,
2013-06-10 08:02:00,64.7,63.8,29.58,SE,130,0.0,0.0,97,0.01,,,0.51,VWS V14.01,2013-06-10 12:02:00,
2013-06-10 08:12:00,64.3,63.1,29.58,SE,130,0.0,0.0,96,0.00,,,0.51,VWS V14.01,2013-06-10 12:12:00,
2013-06-10 08:22:00,65.0,63.8,29.58,SE,140,0.0,0.0,96,0.00,,,0.51,VWS V14.01,2013-06-10 12:22:00,
2013-06-10 08:27:00,64.8,63.6,29.58,SE,140,0.0,0.0,96,0.00,,,0.51,VWS V14.01,2013-06-10 12:27:00,
2013-06-10 08:37:00,64.7,63.2,29.58,South,191,0.0,0.0,95,0.00,,,0.51,VWS V14.01,2013-06-10 12:37:00,
2013-06-10 08:42:00,64.7,63.2,29.58,SSW,199,0.0,0.0,95,0.00,,,0.51,VWS V14.01,2013-06-10 12:42:00,
2013-06-10 08:47:00,65.0,63.5,29.58,SSW,199,0.0,0.0,95,0.00,,,0.51,VWS V14.01,2013-06-10 12:47:00,
2013-06-10 08:57:00,65.0,63.5,29.58,SSW,205,0.0,0.0,95,0.00,,,0.51,VWS V14.01,2013-06-10 12:57:00,
2013-06-10 09:02:00,65.6,64.1,29.58,SSW,205,0.0,0.0,95,0.00,,,0.51,VWS V14.01,2013-06-10 13:02:00,
2013-06-10 09:07:00,66.0,64.5,29.58,SSW,205,0.0,0.0,95,0.00,,,0.51,VWS V14.01,2013-06-10 13:07:00,
2013-06-10 09:12:00,65.8,64.0,29.58,SSW,205,0.0,0.0,94,0.00,,,0.51,VWS V14.01,2013-06-10 13:12:00,
2013-06-10 09:17:00,65.8,64.0,29.58,SSW,193,0.0,0.0,94,0.00,,,0.51,VWS V14.01,2013-06-10 13:17:00,
2013-06-10 09:22:00,66.0,64.2,29.58,SSW,193,0.0,0.0,94,0.00,,BKN060,0.51,VWS V14.01,2013-06-10 13:22:00,
2013-06-10 09:27:00,66.0,63.9,29.58,SSW,208,0.0,0.0,93,0.00,,BKN060,0.51,VWS V14.01,2013-06-10 13:27:00,
2013-06-10 09:32:00,66.3,64.2,29.58,SW,215,0.0,0.0,93,0.00,,BKN060,0.51,VWS V14.01,2013-06-10 13:32:00,
2013-06-10 09:37:00,66.6,64.5,29.58,SSW,198,0.0,0.0,93,0.00,,BKN060,0.51,VWS V14.01,2013-06-10 13:37:00,
2013-06-10 09:42:00,66.4,64.0,29.58,SSE,158,0.0,0.0,92,0.00,,BKN060,0.51,VWS V14.01,2013-06-10 13:42:00,
2013-06-10 09:47:00,66.4,63.7,29.58,SSW,192,0.0,0.0,91,0.00,,BKN060,0.51,VWS V14.01,2013-06-10 13:47:00,
2013-06-10 09:52:00,67.1,64.4,29.58,SSW,192,0.0,0.0,91,0.00,,BKN060,0.51,VWS V14.01,2013-06-10 13:52:00,
2013-06-10 09:57:00,67.1,64.1,29.58,SW,223,0.0,0.0,90,0.00,,BKN060,0.51,VWS V14.01,2013-06-10 13:57:00,
2013-06-10 10:02:00,67.1,63.8,29.58,SW,220,0.0,0.0,89,0.00,,BKN060,0.51,VWS V14.01,2013-06-10 14:02:00,
2013-06-10 10:12:00,67.8,63.8,29.58,SW,216,0.0,0.0,87,0.00,,BKN060,0.51,VWS V14.01,2013-06-10 14:12:00,
2013-06-10 10:22:00,67.9,62.9,29.58,SW,224,0.0,0.0,84,0.00,,OVC010,0.51,VWS V14.01,2013-06-10 14:22:00,
2013-06-10 10:27:00,68.1,62.8,29.58,SSW,213,0.0,0.0,83,0.00,,OVC010,0.51,VWS V14.01,2013-06-10 14:27:00,
2013-06-10 10:37:00,68.9,62.5,29.58,WSW,246,0.0,0.0,80,0.00,,OVC010,0.51,VWS V14.01,2013-06-10 14:37:00,
2013-06-10 10:42:00,69.3,62.5,29.58,SW,234,0.0,0.0,79,0.00,,OVC010,0.51,VWS V14.01,2013-06-10 14:42:00,
2013-06-10 10:47:00,69.1,62.3,29.58,SW,216,0.0,0.0,79,0.00,,OVC010,0.51,VWS V14.01,2013-06-10 14:47:00,
2013-06-10 10:52:00,69.4,62.6,29.58,SSW,213,0.0,0.0,79,0.00,,OVC010,0.51,VWS V14.01,2013-06-10 14:52:00,
2013-06-10 11:02:00,69.8,62.3,29.58,WSW,246,0.0,0.0,77,0.00,,OVC010,0.51,VWS V14.01,2013-06-10 15:02:00,
2013-06-10 11:12:00,70.8,62.5,29.58,SW,216,0.0,0.0,75,0.00,,OVC010,0.51,VWS V14.01,2013-06-10 15:12:00,
2013-06-10 11:17:00,71.3,62.2,29.58,SW,217,0.0,0.0,73,0.00,,OVC010,0.51,VWS V14.01,2013-06-10 15:17:00,
2013-06-10 11:22:00,71.1,61.2,29.58,SW,215,0.0,0.0,71,0.00,,OVC010,0.51,VWS V14.01,2013-06-10 15:22:00,
2013-06-10 11:27:00,70.9,60.6,29.58,SSW,213,0.0,0.0,70,0.00,,OVC010,0.51,VWS V14.01,2013-06-10 15:27:00,
2013-06-10 11:32:00,71.6,60.9,29.58,SW,226,0.0,0.0,69,0.00,,OVC010,0.51,VWS V14.01,2013-06-10 15:32:00,
2013-06-10 11:37:00,72.5,61.3,29.58,SW,217,0.0,0.0,68,0.00,,OVC010,0.51,VWS V14.01,2013-06-10 15:37:00,
2013-06-10 11:42:00,72.7,61.5,29.58,SSW,210,0.0,0.0,68,0.00,,OVC010,0.51,VWS V14.01,2013-06-10 15:42:00,
2013-06-10 11:47:00,72.1,60.1,29.59,SW,224,0.0,0.0,66,0.00,,OVC010,0.51,VWS V14.01,2013-06-10 15:47:00,
2013-06-10 11:52:00,72.0,60.9,29.59,SW,227,0.0,0.0,68,0.00,,OVC010,0.51,VWS V14.01,2013-06-10 15:52:00,
2013-06-10 11:57:00,72.3,61.6,29.59,SW,216,0.0,0.0,69,0.00,,OVC010,0.51,VWS V14.01,2013-06-10 15:57:00,
2013-06-10 12:02:00,71.8,59.4,29.59,WSW,244,0.0,0.0,65,0.00,,OVC010,0.51,VWS V14.01,2013-06-10 16:02:00,
2013-06-10 12:12:00,73.0,61.4,29.59,SW,223,0.0,0.0,67,0.00,,OVC010,0.51,VWS V14.01,2013-06-10 16:12:00,
2013-06-10 12:17:00,73.0,59.7,29.59,SW,223,0.0,0.0,63,0.00,,OVC010,0.51,VWS V14.01,2013-06-10 16:17:00,
2013-06-10 12:22:00,73.0,60.1,29.59,SSW,210,0.0,0.0,64,0.00,,-RA,0.51,VWS V14.01,2013-06-10 16:22:00,
2013-06-10 12:27:00,72.8,60.4,29.59,WSW,244,0.0,0.0,65,0.00,,-RA,0.51,VWS V14.01,2013-06-10 16:27:00,
2013-06-10 12:32:00,73.0,59.7,29.58,West,261,0.0,0.0,63,0.00,,-RA,0.51,VWS V14.01,2013-06-10 16:32:00,
2013-06-10 12:37:00,73.3,58.6,29.58,SW,224,0.0,0.0,60,0.00,,-RA,0.51,VWS V14.01,2013-06-10 16:37:00,
2013-06-10 12:42:00,73.5,59.2,29.58,SSW,203,0.0,0.0,61,0.00,,-RA,0.51,VWS V14.01,2013-06-10 16:42:00,
2013-06-10 12:47:00,73.7,60.3,29.58,SSW,213,0.0,0.0,63,0.00,,-RA,0.51,VWS V14.01,2013-06-10 16:47:00,
2013-06-10 12:57:00,74.0,59.2,29.58,SW,224,0.0,0.0,60,0.00,,-RA,0.51,VWS V14.01,2013-06-10 16:57:00,
2013-06-10 13:02:00,74.2,59.9,29.58,SW,236,0.0,0.0,61,0.00,,-RA,0.51,VWS V14.01,2013-06-10 17:02:00,
2013-06-10 13:12:00,74.4,60.5,29.58,SW,220,0.0,0.0,62,0.00,,-RA,0.51,VWS V14.01,2013-06-10 17:12:00,
2013-06-10 13:17:00,74.7,60.8,29.57,SSW,192,0.0,0.0,62,0.00,,-RA,0.51,VWS V14.01,2013-06-10 17:17:00,
2013-06-10 13:22:00,74.9,61.5,29.57,SSW,199,0.0,0.0,63,0.00,,BKN080,0.51,VWS V14.01,2013-06-10 17:22:00,
2013-06-10 13:27:00,74.7,59.4,29.57,SSW,198,0.0,0.0,59,0.00,,BKN080,0.51,VWS V14.01,2013-06-10 17:27:00,
2013-06-10 13:32:00,74.7,59.0,29.57,SW,217,0.0,0.0,58,0.00,,BKN080,0.51,VWS V14.01,2013-06-10 17:32:00,
2013-06-10 13:37:00,74.9,58.7,29.57,SSW,192,0.0,0.0,57,0.00,,BKN080,0.51,VWS V14.01,2013-06-10 17:37:00,
2013-06-10 13:42:00,74.9,59.1,29.57,SW,227,0.0,0.0,58,0.00,,BKN080,0.51,VWS V14.01,2013-06-10 17:42:00,
2013-06-10 13:47:00,74.9,60.1,29.57,WSW,240,0.0,0.0,60,0.00,,BKN080,0.51,VWS V14.01,2013-06-10 17:47:00,
2013-06-10 13:52:00,75.1,60.3,29.57,WSW,248,0.0,0.0,60,0.00,,BKN080,0.51,VWS V14.01,2013-06-10 17:52:00,
2013-06-10 13:57:00,74.7,60.8,29.57,SW,226,0.0,0.0,62,0.00,,BKN080,0.51,VWS V14.01,2013-06-10 17:57:00,
2013-06-10 14:02:00,75.3,60.9,29.58,WSW,243,0.0,0.0,61,0.00,,BKN080,0.51,VWS V14.01,2013-06-10 18:02:00,
2013-06-10 14:12:00,74.9,58.2,29.58,SW,217,0.0,0.0,56,0.00,,BKN080,0.51,VWS V14.01,2013-06-10 18:12:00,
2013-06-10 14:22:00,76.5,61.1,29.58,SW,234,0.0,0.0,59,0.00,,-RA,0.51,VWS V14.01,2013-06-10 18:22:00,
2013-06-10 14:27:00,76.1,58.8,29.58,SSW,213,0.0,0.0,55,0.00,,-RA,0.51,VWS V14.01,2013-06-10 18:27:00,
2013-06-10 14:32:00,76.7,60.3,29.57,WSW,241,0.0,0.0,57,0.00,,-RA,0.51,VWS V14.01,2013-06-10 18:32:00,
2013-06-10 14:37:00,76.3,58.5,29.57,SW,222,0.0,0.0,54,0.00,,-RA,0.51,VWS V14.01,2013-06-10 18:37:00,
2013-06-10 14:42:00,76.5,59.7,29.57,WSW,257,0.0,0.0,56,0.00,,-RA,0.51,VWS V14.01,2013-06-10 18:42:00,
2013-06-10 14:57:00,76.3,60.5,29.57,SW,232,0.0,0.0,58,0.00,,-RA,0.51,VWS V14.01,2013-06-10 18:57:00,
2013-06-10 15:02:00,76.5,59.2,29.57,WSW,241,0.0,0.0,55,0.00,,-RA,0.51,VWS V14.01,2013-06-10 19:02:00,
2013-06-10 15:12:00,77.2,58.2,29.57,SSW,213,0.0,0.0,52,0.00,,-RA,0.51,VWS V14.01,2013-06-10 19:12:00,
2013-06-10 15:17:00,77.2,58.8,29.56,SW,236,0.0,0.0,53,0.00,,-RA,0.51,VWS V14.01,2013-06-10 19:17:00,
2013-06-10 15:22:00,76.7,58.3,29.56,SSW,212,0.0,0.0,53,0.00,,OVC085,0.51,VWS V14.01,2013-06-10 19:22:00,
2013-06-10 15:27:00,76.0,58.2,29.56,SW,232,0.0,0.0,54,0.00,,OVC085,0.51,VWS V14.01,2013-06-10 19:27:00,
2013-06-10 15:32:00,76.1,58.8,29.56,WSW,258,0.0,0.0,55,0.00,,OVC085,0.51,VWS V14.01,2013-06-10 19:32:00,
2013-06-10 15:37:00,76.3,59.0,29.56,WSW,244,0.0,0.0,55,0.00,,OVC085,0.51,VWS V14.01,2013-06-10 19:37:00,
2013-06-10 15:47:00,76.0,58.7,29.57,SW,215,0.0,0.0,55,0.00,,OVC085,0.51,VWS V14.01,2013-06-10 19:47:00,
2013-06-10 15:52:00,76.0,58.2,29.57,WSW,244,0.0,0.0,54,0.00,,OVC085,0.51,VWS V14.01,2013-06-10 19:52:00,
2013-06-10 15:57:00,77.0,59.6,29.57,SW,230,0.0,0.0,55,0.00,,OVC085,0.51,VWS V14.01,2013-06-10 19:57:00,
2013-06-10 16:02:00,76.8,59.4,29.57,WSW,237,0.0,0.0,55,0.00,,OVC085,0.51,VWS V14.01,2013-06-10 20:02:00,
2013-06-10 16:12:00,75.8,59.0,29.57,SSW,210,0.0,0.0,56,0.00,,OVC085,0.51,VWS V14.01,2013-06-10 20:12:00,
2013-06-10 16:17:00,75.6,58.8,29.57,SW,223,0.0,0.0,56,0.00,,OVC085,0.51,VWS V14.01,2013-06-10 20:17:00,
2013-06-10 16:22:00,76.0,59.2,29.57,SW,222,0.0,0.0,56,0.00,,OVC085,0.51,VWS V14.01,2013-06-10 20:22:00,
2013-06-10 16:27:00,76.1,59.3,29.57,SW,222,0.0,0.0,56,0.00,,OVC085,0.51,VWS V14.01,2013-06-10 20:27:00,
2013-06-10 16:37:00,76.0,58.7,29.57,WSW,254,0.0,0.0,55,0.00,,OVC085,0.51,VWS V14.01,2013-06-10 20:37:00,
2013-06-10 16:42:00,74.4,61.4,29.57,NNE,18,0.0,0.0,64,0.00,,OVC085,0.51,VWS V14.01,2013-06-10 20:42:00,
2013-06-10 16:47:00,72.5,62.2,29.58,NNW,344,0.0,0.0,70,0.00,,OVC085,0.51,VWS V14.01,2013-06-10 20:47:00,
2013-06-10 16:52:00,71.1,62.0,29.58,NNW,337,0.0,0.0,73,0.00,,OVC085,0.51,VWS V14.01,2013-06-10 20:52:00,
2013-06-10 16:57:00,70.3,62.0,29.58,WNW,288,0.0,0.0,75,0.00,,OVC085,0.51,VWS V14.01,2013-06-10 20:57:00,
2013-06-10 17:02:00,69.1,62.7,29.59,WNW,295,0.0,0.0,80,0.01,,OVC085,0.52,VWS V14.01,2013-06-10 21:02:00,
2013-06-10 17:12:00,67.8,62.8,29.59,WNW,298,0.0,0.0,84,0.03,,OVC085,0.54,VWS V14.01,2013-06-10 21:12:00,
2013-06-10 17:22:00,67.6,62.9,29.59,SSW,212,0.0,0.0,85,0.04,,OVC085,0.55,VWS V14.01,2013-06-10 21:22:00,
2013-06-10 17:27:00,67.4,63.1,29.59,SSW,212,0.0,0.0,86,0.05,,OVC085,0.56,VWS V14.01,2013-06-10 21:27:00,
2013-06-10 17:32:00,67.3,63.0,29.58,SSW,210,0.0,0.0,86,0.05,,OVC085,0.56,VWS V14.01,2013-06-10 21:32:00,
2013-06-10 17:37:00,67.3,63.0,29.58,SSW,209,0.0,0.0,86,0.05,,OVC085,0.56,VWS V14.01,2013-06-10 21:37:00,
2013-06-10 17:42:00,67.6,63.3,29.58,SSW,209,0.0,0.0,86,0.05,,OVC085,0.56,VWS V14.01,2013-06-10 21:42:00,
2013-06-10 17:47:00,67.9,63.6,29.58,SSW,209,0.0,0.0,86,0.05,,OVC085,0.56,VWS V14.01,2013-06-10 21:47:00,
2013-06-10 17:52:00,68.4,64.1,29.58,SSW,209,0.0,0.0,86,0.05,,OVC085,0.56,VWS V14.01,2013-06-10 21:52:00,
2013-06-10 17:57:00,68.8,64.4,29.58,SSW,213,0.0,0.0,86,0.05,,OVC085,0.56,VWS V14.01,2013-06-10 21:57:00,
2013-06-10 18:07:00,69.1,63.7,29.58,SW,226,0.0,0.0,83,0.04,,OVC085,0.56,VWS V14.01,2013-06-10 22:07:00,
2013-06-10 18:12:00,69.6,64.2,29.58,SW,229,0.0,0.0,83,0.04,,OVC085,0.56,VWS V14.01,2013-06-10 22:12:00,
2013-06-10 18:17:00,69.6,63.9,29.59,SW,230,0.0,0.0,82,0.02,,OVC085,0.56,VWS V14.01,2013-06-10 22:17:00,
2013-06-10 18:22:00,69.9,64.2,29.59,SW,230,0.0,0.0,82,0.02,,OVC085,0.56,VWS V14.01,2013-06-10 22:22:00,
2013-06-10 18:27:00,70.1,64.0,29.59,SW,230,0.0,0.0,81,0.01,,OVC085,0.56,VWS V14.01,2013-06-10 22:27:00,
2013-06-10 18:37:00,70.4,64.3,29.59,SW,230,0.0,0.0,81,0.00,,OVC085,0.56,VWS V14.01,2013-06-10 22:37:00,
2013-06-10 18:42:00,70.4,64.3,29.59,SW,230,0.0,0.0,81,0.00,,OVC085,0.56,VWS V14.01,2013-06-10 22:42:00,
2013-06-10 18:47:00,70.4,64.3,29.59,SW,230,0.0,0.0,81,0.00,,OVC085,0.56,VWS V14.01,2013-06-10 22:47:00,
2013-06-10 18:57:00,70.8,64.3,29.59,SW,230,0.0,0.0,80,0.00,,OVC085,0.56,VWS V14.01,2013-06-10 22:57:00,
2013-06-10 19:02:00,71.1,64.3,29.59,SW,230,0.0,0.0,79,0.00,,OVC085,0.56,VWS V14.01,2013-06-10 23:02:00,
2013-06-10 19:12:00,71.8,64.2,29.59,SW,219,0.0,0.0,77,0.00,,OVC085,0.56,VWS V14.01,2013-06-10 23:12:00,
2013-06-10 19:17:00,71.6,64.0,29.59,SW,219,0.0,0.0,77,0.00,,OVC085,0.56,VWS V14.01,2013-06-10 23:17:00,
2013-06-10 19:22:00,71.3,63.7,29.59,SW,222,0.0,0.0,77,0.00,,BKN035,0.56,VWS V14.01,2013-06-10 23:22:00,
2013-06-10 19:27:00,71.5,63.9,29.59,SW,222,0.0,0.0,77,0.00,,BKN035,0.56,VWS V14.01,2013-06-10 23:27:00,
2013-06-10 19:32:00,71.5,63.9,29.59,SW,222,0.0,0.0,77,0.00,,BKN035,0.56,VWS V14.01,2013-06-10 23:32:00,
2013-06-10 19:37:00,71.8,64.2,29.59,SW,222,0.0,0.0,77,0.00,,BKN035,0.56,VWS V14.01,2013-06-10 23:37:00,
2013-06-10 19:47:00,72.0,63.7,29.59,WSW,258,0.0,0.0,75,0.00,,BKN035,0.56,VWS V14.01,2013-06-10 23:47:00,
2013-06-10 19:52:00,72.1,63.8,29.59,WSW,258,0.0,0.0,75,0.00,,BKN035,0.56,VWS V14.01,2013-06-10 23:52:00,
2013-06-10 19:57:00,72.1,64.1,29.59,WSW,258,0.0,0.0,76,0.00,,BKN035,0.56,VWS V14.01,2013-06-10 23:57:00,
2013-06-10 20:02:00,71.8,64.2,29.59,WSW,258,0.0,0.0,77,0.00,,BKN035,0.56,VWS V14.01,2013-06-11 00:02:00,
2013-06-10 20:07:00,71.6,64.0,29.59,WSW,258,0.0,0.0,77,0.00,,BKN035,0.56,VWS V14.01,2013-06-11 00:07:00,
2013-06-10 20:17:00,71.6,64.4,29.60,WSW,258,0.0,0.0,78,0.00,,BKN035,0.56,VWS V14.01,2013-06-11 00:17:00,
2013-06-10 20:22:00,71.8,64.6,29.60,WSW,258,0.0,0.0,78,0.00,,BKN035,0.56,VWS V14.01,2013-06-11 00:22:00,
2013-06-10 20:27:00,71.6,64.0,29.60,NNW,340,0.0,0.0,77,0.00,,BKN035,0.56,VWS V14.01,2013-06-11 00:27:00,
2013-06-10 20:37:00,70.8,62.5,29.61,NW,311,0.0,0.0,75,0.00,,BKN035,0.56,VWS V14.01,2013-06-11 00:37:00,
2013-06-10 20:42:00,70.6,61.9,29.61,NNW,333,0.0,0.0,74,0.00,,BKN035,0.56,VWS V14.01,2013-06-11 00:42:00,
2013-06-10 20:52:00,70.3,62.0,29.61,NW,304,0.0,0.0,75,0.00,,BKN035,0.56,VWS V14.01,2013-06-11 00:52:00,
2013-06-10 20:57:00,69.8,61.5,29.61,WNW,299,0.0,0.0,75,0.00,,BKN035,0.56,VWS V14.01,2013-06-11 00:57:00,
2013-06-10 21:02:00,69.4,61.1,29.61,NW,308,0.0,0.0,75,0.00,,BKN035,0.56,VWS V14.01,2013-06-11 01:02:00,
2013-06-10 21:12:00,68.9,61.8,29.61,NW,304,0.0,0.0,78,0.00,,BKN035,0.56,VWS V14.01,2013-06-11 01:12:00,
2013-06-10 21:17:00,68.6,61.8,29.62,WNW,299,0.0,0.0,79,0.00,,BKN035,0.56,VWS V14.01,2013-06-11 01:17:00,
2013-06-10 21:22:00,68.3,61.5,29.62,NW,316,0.0,0.0,79,0.00,,BKN014,0.56,VWS V14.01,2013-06-11 01:22:00,
2013-06-10 21:32:00,67.8,61.8,29.62,NW,323,0.0,0.0,81,0.00,,BKN014,0.56,VWS V14.01,2013-06-11 01:32:00,
2013-06-10 21:37:00,67.4,61.4,29.62,NW,318,0.0,0.0,81,0.00,,BKN014,0.56,VWS V14.01,2013-06-11 01:37:00,
2013-06-10 21:42:00,67.1,61.4,29.62,NW,309,0.0,0.0,82,0.00,,BKN014,0.56,VWS V14.01,2013-06-11 01:42:00,
2013-06-10 21:47:00,66.9,61.2,29.62,WNW,291,0.0,0.0,82,0.00,,BKN014,0.56,VWS V14.01,2013-06-11 01:47:00,
2013-06-10 21:57:00,66.4,61.1,29.62,WNW,296,0.0,0.0,83,0.00,,BKN014,0.56,VWS V14.01,2013-06-11 01:57:00,
2013-06-10 22:02:00,66.3,61.0,29.63,WNW,295,0.0,0.0,83,0.00,,BKN014,0.56,VWS V14.01,2013-06-11 02:02:00,
2013-06-10 22:12:00,66.0,61.0,29.63,NW,323,0.0,0.0,84,0.00,,BKN014,0.56,VWS V14.01,2013-06-11 02:12:00,
2013-06-10 22:17:00,65.8,61.2,29.63,NW,323,0.0,0.0,85,0.00,,BKN014,0.56,VWS V14.01,2013-06-11 02:17:00,
2013-06-10 22:22:00,65.6,61.0,29.63,NW,323,0.0,0.0,85,0.00,,OVC008,0.56,VWS V14.01,2013-06-11 02:22:00,
2013-06-10 22:27:00,65.5,60.9,29.63,NW,322,0.0,0.0,85,0.00,,OVC008,0.56,VWS V14.01,2013-06-11 02:27:00,
2013-06-10 22:32:00,65.5,61.2,29.64,NW,323,0.0,0.0,86,0.00,,OVC008,0.56,VWS V14.01,2013-06-11 02:32:00,
2013-06-10 22:37:00,65.3,61.0,29.64,NW,322,0.0,0.0,86,0.00,,OVC008,0.56,VWS V14.01,2013-06-11 02:37:00,
2013-06-10 22:42:00,65.3,61.0,29.64,NW,322,0.0,0.0,86,0.00,,OVC008,0.56,VWS V14.01,2013-06-11 02:42:00,
2013-06-10 22:47:00,65.2,60.9,29.65,NW,322,0.0,0.0,86,0.00,,OVC008,0.56,VWS V14.01,2013-06-11 02:47:00,
2013-06-10 22:52:00,65.2,61.2,29.65,NW,322,0.0,0.0,87,0.00,,OVC008,0.56,VWS V14.01,2013-06-11 02:52:00,
2013-06-10 22:57:00,65.0,61.0,29.65,NW,322,0.0,0.0,87,0.00,,OVC008,0.56,VWS V14.01,2013-06-11 02:57:00,
2013-06-10 23:02:00,65.0,61.0,29.65,WNW,301,0.0,0.0,87,0.00,,OVC008,0.56,VWS V14.01,2013-06-11 03:02:00,
2013-06-10 23:12:00,64.8,61.2,29.65,WNW,302,0.0,0.0,88,0.00,,OVC008,0.56,VWS V14.01,2013-06-11 03:12:00,
2013-06-10 23:17:00,64.8,61.5,29.66,WNW,302,0.0,0.0,89,0.00,,OVC008,0.56,VWS V14.01,2013-06-11 03:17:00,
2013-06-10 23:22:00,64.7,61.4,29.66,WNW,299,0.0,0.0,89,0.00,,OVC006,0.56,VWS V14.01,2013-06-11 03:22:00,
2013-06-10 23:32:00,64.5,61.2,29.66,WNW,299,0.0,0.0,89,0.00,,OVC006,0.56,VWS V14.01,2013-06-11 03:32:00,
2013-06-10 23:37:00,64.5,61.2,29.66,WNW,299,0.0,0.0,89,0.00,,OVC006,0.56,VWS V14.01,2013-06-11 03:37:00,
2013-06-10 23:42:00,64.3,61.3,29.66,WNW,301,0.0,0.0,90,0.00,,OVC006,0.56,VWS V14.01,2013-06-11 03:42:00,
2013-06-10 23:52:00,64.2,61.2,29.66,WNW,299,0.0,0.0,90,0.00,,OVC006,0.56,VWS V14.01,2013-06-11 03:52:00,